This is the latest recevied weather packets stored in our database for station/object N4BBA. If no packets are shown the sender has not sent any weather packets the latest 10 day(s).
| Time | Temp. | Humidity | Pressure | Rain* | Wind** | Luminosity | Snow |
|---|---|---|---|---|---|---|---|
| 1777637375 | 11.67° C | 72% | 1014.7 hPa | 0 mm | - | 118 W/m² | - |
| 1777637072 | 11.67° C | 73% | 1015 hPa | 0 mm | - | 82 W/m² | - |
| 1777636767 | 11.67° C | 73% | 1014.9 hPa | 0 mm | - | 112 W/m² | - |
| 1777636464 | 11.67° C | 73% | 1015 hPa | 0 mm | - | 113 W/m² | - |
| 1777636160 | 11.11° C | 73% | 1015.1 hPa | 0 mm | - | 78 W/m² | - |
| 1777635857 | 11.11° C | 72% | 1015.2 hPa | 0 mm | - | 43 W/m² | - |
| 1777635552 | 11.11° C | 72% | 1015.1 hPa | 0 mm | - | 33 W/m² | - |
| 1777635248 | 11.11° C | 71% | 1015.1 hPa | 0 mm | - | 21 W/m² | - |
| 1777634945 | 11.11° C | 71% | 1014.9 hPa | 0 mm | - | 25 W/m² | - |
| 1777634642 | 11.11° C | 72% | 1014.9 hPa | 0 mm | - | 28 W/m² | - |
| 1777634340 | 11.11° C | 72% | 1014.7 hPa | 0 mm | - | 25 W/m² | - |
| 1777634035 | 11.11° C | 71% | 1014.9 hPa | 0 mm | - | 22 W/m² | - |
| 1777633732 | 11.67° C | 72% | 1014.9 hPa | 0 mm | - | 15 W/m² | - |
| 1777633431 | 11.11° C | 72% | 1014.7 hPa | 0 mm | - | 17 W/m² | - |
| 1777633128 | 11.11° C | 74% | 1014.6 hPa | 0 mm | - | 19 W/m² | - |
| 1777632824 | 11.11° C | 74% | 1014.7 hPa | 0 mm | - | 17 W/m² | - |
| 1777632520 | 11.11° C | 74% | 1014.8 hPa | 0 mm | - | 17 W/m² | - |
| 1777632218 | 11.11° C | 75% | 1014.7 hPa | 0 mm | - | 10 W/m² | - |
| 1777631915 | 11.11° C | 75% | 1014.7 hPa | 0 mm | - | 4 W/m² | - |
| 1777631614 | 11.11° C | 75% | 1014.7 hPa | 0 mm | - | 2 W/m² | - |
| 1777631310 | 11.11° C | 76% | 1014.7 hPa | 0 mm | - | 2 W/m² | - |
| 1777631007 | 11.11° C | 76% | 1014.4 hPa | 0 mm | - | 1 W/m² | - |
| 1777630703 | 11.11° C | 75% | 1014.2 hPa | 0 mm | - | 1 W/m² | - |
| 1777630400 | 11.11° C | 75% | 1014.4 hPa | 0 mm | - | 0 W/m² | - |
| 1777630097 | 11.11° C | 74% | 1014.6 hPa | 0 mm | - | 0 W/m² | - |
* Rain latest hour (hover to see other rain measurements)
** Current wind speed in m/s (hover to see current wind gust speed)